Regional Weather Roundup
Issued by NWS Newport/Morehead, NC

Current Version | Previous Version | Text Only | Print | Product List | Glossary Off
Versions: 1 2 3 4 5 6 7 8 9 10 11 12 13 14 15 16 17 18 19 20 21 22 23 24 25 26 27 28 29 30 31 32 33 34 35 36 37 38 39 40 41 42 43 44 45 46 47 48 49 50

000
ASUS42 KMHX 231122
RWRMHX
WEATHER ROUNDUP FOR EASTERN NORTH CAROLINA
NATIONAL WEATHER SERVICE NEWPORT/MOREHEAD CITY NC
700 AM EDT THU OCT 23 2014

NOTE: "FAIR" INDICATES FEW OR NO CLOUDS BELOW 12,000 FEET
WITH NO SIGNIFICANT WEATHER AND/OR OBSTRUCTIONS TO VISIBILITY

NCZ015>017-031-032-045>047-102-103-231200-
NORTH COAST

CITY           SKY/WX    TMP DP  RH WIND       PRES   REMARKS
EDENTON        CLEAR     50  44  79 NW10      29.94S
ELIZABETH CITY PTCLDY    51  43  74 W14       29.91R
KITTY HAWK     CLOUDY    53  45  73 NW14G23   29.88R
MANTEO         PTCLDY    53  44  73 NW17G23   29.89S

$$

NCZ045>047-081-094-103-104-231200-
CENTRAL COAST

CITY           SKY/WX    TMP DP  RH WIND       PRES   REMARKS
FRISCO         MOCLDY    54  46  74 NW16G25   29.90S
SWANQUARTER      N/A     52 N/A N/A NW16G23   29.91S

$$

NCZ095-097-098-100-101-231200-
SOUTHERN COAST

CITY           SKY/WX    TMP DP  RH WIND       PRES   REMARKS
BEAUFORT       CLEAR     51  45  79 NW16      29.97R
CEDAR ISLAND     N/A     54 N/A N/A W7G22     29.97S
JACKSONVILLE   CLEAR     46  42  86 NW6       29.99R
PINEY ISLAND   SUNNY     54  45  71 W17       29.96R
WILMINGTON     CLEAR     47  42  83 NW7       30.00S


$$

NCZ011>013-027>030-043-044-078>080-089-090>093-098-231200-
COASTAL PLAIN

CITY           SKY/WX    TMP DP  RH WIND       PRES   REMARKS
AHOSKIE        CLEAR     45  41  88 CALM      29.96S
CLINTON        CLEAR     46  43  88 CALM      30.02S
ELIZABETHTOWN  CLEAR     47  41  81 CALM      30.02S
GOLDSBORO      CLEAR     47  46  97 W7        29.99R
GREENVILLE     CLEAR     46  43  87 W5        30.00S
HAVELOCK       PTCLDY    49  43  80 NW7       29.99R
KENANSVILLE    CLEAR     46  41  85 W3        30.02R
KINSTON        CLEAR     46  43  87 W5        30.00S
NEW BERN       CLEAR     50  43  77 NW8       29.99R
RICHLANDS      CLEAR     46  39  76 CALM      30.00S
ROCKY MOUNT    CLEAR     48  41  76 W8        29.99R
WASHINGTON     CLEAR     47  42  82 NW3       29.98R
WHITEVILLE     CLEAR     45  41  88 CALM      30.03R

$$

AMZ130-135-150-152-154-156-158-170-250-252-270-ANZ085-086-088-633-658-670-231200-
MARINE OBSERVATIONS

STATION/POSITION TIME  TEMP    WIND        PRES    WAVE   SWELL
                       AIR SEA DIR/SP/G            HT/PER HT/PER
                 (UTC) (F)     (DEG/KT/KT) (MB)    (FT/S) (FT/S)
CHESAPEAKE LIGHT 1100   56     320/ 27/ 32 1011.3
64 E VA BEACH    1100   59 71  310/ 27/ 35 1007.7   11/ 9   5/16
DUCK             1100   53 67  300/ 16/ 21 1010.9
2 E DUCK         1100                        N/A     6/ 9   2/11
10 NE DUCK       1100      69                N/A     8/ 8   2/11
OREGON INLET     1100   54 61  300/ 18/ 24 1011.6
13E OREGON INLT  1100      71                N/A     9/ 8   2/11
HATTERAS CG      1100   56 64  310/ 22/ 26 1013.0
DIAMOND BUOY     1100   58     300/ 25/ 31 1011.7    6/ 5   2/ 9
17 S OCRACOKE    NOT AVBL
CAPE LOOKOUT     1100   55     310/ 15/ 18 1014.3
BEAUFORT LAB     1100   52 67  320/  9/ 13 1013.9
30 SE NEW RIVER  1100   60 75  340/ 19/ 23 1013.9    4/ 4
5 SE WRIGHTSVLE  1100   52 72  340/ 17/ 19   N/A
225 S CAPE HAT   1031   71 78  300/ 17/ 21 1013.6    7/ 8   5/ 8
41 SE CHARLESTON 1100   63 78  330/ 10/ 14 1016.6    4/ 5   3/ 5

$$



USA.gov is the U.S. government's official web portal to all federal, state and local government web resources and services.